{"data":{"norad_id":67424,"epoch":"2026-09-19T22:28:46.124544Z","epoch_age_seconds":123955,"freshness":"FRESH","line1":"1 67424U 26005W   26262.93664496  .00013187  00000+0  48766-3 0  9994","line2":"2 67424  42.9992 221.0148 0000567 291.5348  68.5443 15.27592424 38404","mean_motion":15.27592424,"eccentricity":5.67e-5,"inclination_deg":42.9992,"raan_deg":221.0148,"arg_perigee_deg":291.5348,"mean_anomaly_deg":68.5443,"bstar":0.00048766,"rev_number":3840,"period_min":94.26598203658,"perigee_km":482.62286722397,"apogee_km":483.40092150859,"semimajor_km":6861.1488943663,"source":"CELESTRAK","updated_at":"2026-09-20T09:00:43.523387Z"}}